TimeEST,TemperatureF,Dew PointF,Humidity,Sea Level PressureIn,VisibilityMPH,Wind Direction,Wind SpeedMPH,Gust SpeedMPH,PrecipitationIn,Events,Conditions,WindDirDegrees,DateUTC
12:00 AM,48.2,46.4,93,30.14,5.0,ENE,5.8,-,N/A,,Overcast,70,2012-12-03 05:00:00
12:18 AM,-9999,-9999,N/A,-9999,5.0,ESE,3.5,-,N/A,,Overcast,120,2012-12-03 05:18:00
1:00 AM,47,46,94,30.13,5,ENE,5.8,,,,Mist,60,2012-12-03 06:00:00
1:00 AM,46.4,46.4,100,30.13,5.0,ENE,5.8,-,N/A,,Overcast,60,2012-12-03 06:00:00
2:00 AM,44.6,44.6,100,30.13,5.0,NE,5.8,-,N/A,,Scattered Clouds,50,2012-12-03 07:00:00
3:00 AM,44.6,44.6,100,30.14,2.5,ESE,4.6,-,N/A,,Mostly Cloudy,110,2012-12-03 08:00:00
4:00 AM,44.6,44.6,100,30.14,2.0,East,2.3,-,N/A,,Mostly Cloudy,80,2012-12-03 09:00:00
4:24 AM,-9999,-9999,N/A,-9999,1.0,ENE,3.5,-,N/A,,Mostly Cloudy,60,2012-12-03 09:24:00
4:30 AM,-9999,-9999,N/A,-9999,0.5,ENE,2.3,-,N/A,Fog,Fog,60,2012-12-03 09:30:00
4:38 AM,-9999,-9999,N/A,-9999,0.8,ENE,3.5,-,N/A,,Mostly Cloudy,60,2012-12-03 09:38:00
5:00 AM,42.8,42.8,100,30.14,2.0,NE,4.6,-,N/A,,Overcast,50,2012-12-03 10:00:00
5:36 AM,-9999,-9999,N/A,-9999,3.0,East,5.8,-,N/A,,Overcast,80,2012-12-03 10:36:00
6:00 AM,44.6,44.6,100,30.16,4.0,ESE,2.3,-,N/A,,Overcast,110,2012-12-03 11:00:00
6:49 AM,-9999,-9999,N/A,-9999,3.0,ESE,4.6,-,N/A,,Light Drizzle,110,2012-12-03 11:49:00
7:00 AM,47,47,99,30.14,3,ESE,5.8,,,Rain,Light Drizzle,110,2012-12-03 12:00:00
7:00 AM,46.4,46.4,100,30.14,3.0,ESE,5.8,-,N/A,,Light Drizzle,110,2012-12-03 12:00:00
7:18 AM,-9999,-9999,N/A,-9999,3.0,SSE,6.9,-,N/A,,Overcast,150,2012-12-03 12:18:00
7:26 AM,-9999,-9999,N/A,-9999,1.0,SE,8.1,-,N/A,,Overcast,140,2012-12-03 12:26:00
7:37 AM,-9999,-9999,N/A,-9999,0.8,SE,5.8,-,N/A,,Overcast,130,2012-12-03 12:37:00
7:50 AM,-9999,-9999,N/A,-9999,0.2,SSE,3.5,-,N/A,Fog,Fog,150,2012-12-03 12:50:00
8:00 AM,48.2,48.2,100,30.15,0.1,SE,3.5,-,N/A,Fog,Fog,130,2012-12-03 13:00:00
8:14 AM,-9999,-9999,N/A,-9999,0.0,SE,5.8,-,N/A,Fog,Fog,130,2012-12-03 13:14:00
8:36 AM,-9999,-9999,N/A,-9999,0.1,SE,9.2,-,N/A,Fog,Fog,130,2012-12-03 13:36:00
9:00 AM,48.2,48.2,100,30.14,0.1,SE,6.9,-,N/A,Fog,Fog,130,2012-12-03 14:00:00
10:00 AM,50.0,50.0,100,30.14,0.1,SE,8.1,-,N/A,Fog,Fog,140,2012-12-03 15:00:00
10:15 AM,-9999,-9999,N/A,-9999,0.1,SE,5.8,-,N/A,Fog,Light Drizzle,140,2012-12-03 15:15:00
11:00 AM,51.8,51.8,100,30.13,0.1,SSE,5.8,-,N/A,Fog,Fog,150,2012-12-03 16:00:00
11:05 AM,-9999,-9999,N/A,-9999,0.1,SE,5.8,-,N/A,Fog,Fog,140,2012-12-03 16:05:00
11:32 AM,-9999,-9999,N/A,-9999,0.2,SSE,8.1,-,N/A,Fog,Fog,160,2012-12-03 16:32:00
12:00 PM,53.6,53.6,100,30.10,0.4,South,10.4,-,N/A,Fog,Fog,180,2012-12-03 17:00:00
12:11 PM,-9999,-9999,N/A,-9999,0.5,South,8.1,-,N/A,Fog,Fog,180,2012-12-03 17:11:00
12:30 PM,-9999,-9999,N/A,-9999,1.0,South,9.2,-,N/A,,Overcast,170,2012-12-03 17:30:00
1:00 PM,54,54,100,30.08,0,South,10.4,,,Fog,Heavy Fog,170,2012-12-03 18:00:00
1:00 PM,55.4,55.4,100,30.08,0.5,South,11.5,-,N/A,Fog,Fog,170,2012-12-03 18:00:00
1:22 PM,-9999,-9999,N/A,-9999,0.1,South,6.9,-,N/A,Fog,Fog,170,2012-12-03 18:22:00
2:00 PM,55.4,55.4,100,30.05,0.1,SSE,11.5,-,N/A,Fog,Fog,160,2012-12-03 19:00:00
2:25 PM,-9999,-9999,N/A,-9999,0.5,South,10.4,-,N/A,Fog,Fog,170,2012-12-03 19:25:00
3:00 PM,55.4,55.4,100,30.03,0.5,South,9.2,-,N/A,Fog,Light Drizzle,170,2012-12-03 20:00:00
3:26 PM,-9999,-9999,N/A,-9999,1.0,South,12.7,-,N/A,,Light Drizzle,180,2012-12-03 20:26:00
3:45 PM,-9999,-9999,N/A,-9999,1.5,South,10.4,-,N/A,,Overcast,180,2012-12-03 20:45:00
4:00 PM,57.2,57.2,100,30.03,1.5,South,11.5,-,N/A,,Overcast,180,2012-12-03 21:00:00
4:23 PM,-9999,-9999,N/A,-9999,2.0,South,12.7,-,N/A,,Overcast,170,2012-12-03 21:23:00
5:00 PM,59.0,57.2,94,30.02,2.0,South,10.4,-,N/A,,Overcast,170,2012-12-03 22:00:00
6:00 PM,57.2,57.2,100,30.01,2.0,South,11.5,-,N/A,,Overcast,180,2012-12-03 23:00:00
7:00 PM,59,57,91,30.01,6,South,13.8,,,,Mist,190,2012-12-04 00:00:00
7:00 PM,59.0,57.2,94,30.01,6.0,South,13.8,-,N/A,,Overcast,190,2012-12-04 00:00:00
8:00 PM,59.0,57.2,94,29.99,8.0,South,19.6,-,N/A,,Overcast,190,2012-12-04 01:00:00
9:00 PM,59.0,57.2,94,29.98,12.0,SSW,16.1,21.9,N/A,,Mostly Cloudy,200,2012-12-04 02:00:00
10:00 PM,57.2,55.4,94,29.96,15.0,SSW,17.3,23.0,N/A,,Scattered Clouds,200,2012-12-04 03:00:00
11:00 PM,57.2,55.4,94,29.95,15.0,SSW,17.3,23.0,N/A,,Mostly Cloudy,200,2012-12-04 04:00:00